sat.trackr.live / text

‹ back to catalog

STARLINK-5627

NORAD 55364 · 2023-013AK

PAYLOAD ACTIVE UNKNOWN

§ Identity

Operator
Country
US
Launch date
2023-01-26
Launch site
AFETR
Launch vehicle
Mass (kg)
RCS (m²)

Purposes: comms

External: N2YO · Heavens-Above · Gunter

§ Orbital elements

Epoch: 2026-05-24T16:02:17.905056Z

Period
94.27 min
Inclination
43.0022°
Eccentricity
0.0001500
Mean motion
15.27577399 rev/d
Perigee alt
482.0 km
Apogee alt
484.1 km
Semi-major
6,861.2 km
B*
1.1074e-5
RAAN
237.7044°
Arg perigee
263.2500°
Mean anomaly
96.8181°
Rev number
18,325

§ Raw data

STARLINK-56271 55364U 23013AK  26144.66826279  .00000043  00000+0  11074-4 0  99982 55364  43.0022 237.7044 0001500 263.2500  96.8181 15.27577399183254

JSON: /api/v1/satellites/55364 · /tle

For live sub-satellite position, see the globe view (requires WebGL).

§ Visibility from observer

Set your observer location to see the next 7 days of passes ≥ 10°. The values pass through the URL so the page stays shareable.

No JS? Fill the form by hand. The geolocation button needs JavaScript.